Location: Pasadena-CA
(34.1440°N, 118.1100°W)
Time: 15:09:06
(UTC-07:00)

BlueWalker 3 - Visible Passes

Search period start: 20 May 2025 00:00
Search period end: 30 May 2025 00:00
Orbit: 461 x 473 km, 53.2° (Epoch: 20 May)

Date Brightness Start Highest point End Pass type
(mag) Time Alt. Az. Time Alt. Az. Time Alt. Az.
20 May 4.4 23:01:40 10° NW 23:02:53 20° NNW 23:02:53 20° NNW visible
21 May 3.5 22:29:44 10° NNW 22:31:59 32° NNW 22:31:59 32° NNW visible
22 May 2.8 21:57:49 10° NNW 22:01:06 38° NE 22:01:06 38° NE visible
23 May 3.0 21:25:56 10° NNW 21:29:13 31° NE 21:30:16 26° ENE visible
23 May 4.8 23:03:55 10° WNW 23:04:13 12° WNW 23:04:13 12° WNW visible
24 May 3.3 20:54:03 10° NNW 20:57:09 26° NE 20:59:29 14° E visible
24 May 3.9 22:31:40 10° WNW 22:33:26 21° W 22:33:26 21° W visible
25 May 3.6 20:22:11 10° NNW 20:25:03 21° NE 20:27:55 10° E visible
25 May 2.8 21:59:29 10° WNW 22:02:41 35° WSW 22:02:41 35° WSW visible
26 May 2.4 21:27:20 10° WNW 21:30:50 46° SW 21:32:00 33° S visible
27 May 2.1 20:55:14 10° NW 20:58:49 61° SW 21:01:23 18° SSE visible
28 May 1.8 20:23:09 10° NW 20:26:47 80° SW 20:30:24 10° SE visible
